www.pogodaiklimat.ru

Погода и климат >> Архив погоды >> Мьянма >> Гва


ПОГОДА в Гва

  • Прогноз погоды в Гва
  • Монитор погоды в Гва

АРХИВ ПОГОДЫ в Гва

Время (UTC), дата Ветер
(напр.,м/с)
 
Видим.   Явления Облачность Т
(С)
Тd
(С)
f
(%)
Тe
(С)
Тes
(С)
Комфортность P
(гПа)
Po
(гПа)
Тmin
(С)
Tmax
(С)
R
(мм)
R24
(мм)
S
(см)
00 17.07 штиль 0 6000 м {дождь} 10/8 200 м
[Frnb Ac As]
+23.8 +23.4 98 +32 +32 очень
душно
1002.2 1001.9 +23.7
03 17.07 штиль 0 8000 м 6/4 300 м
[Cu Sc Ac As]
+27.8 +25.6 88 +41 +50 опасность
перегрева
1002.6 1002.3
06 17.07 СЗ 2 8000 м 6/6 300 м
[Cu Sc]
+30.2 +25.3 75 +44 +53 опасность
перегрева
1002.2 1001.9
09 17.07 СЗ 2 6000 м слаб. морось {дождь} 10/8 300 м
[Frnb As op]
+26.7 +25.0 90 +38 +39 очень
душно
1001.8 1001.5
12 17.07 штиль 0 6000 м {дождь} 9/6 200 м
[Frnb Ac As]
+26.6 +24.6 89 +38 +38 очень
душно
1001.6 1001.3 +31.6 10
00 18.07 штиль 0 6000 м {дождь} 10/8 200 м
[Frnb Ac As]
+25.7 +24.6 94 +36 +36 очень
душно
1001.9 1001.6 +25.3 1
03 18.07 СЗ 2 8000 м 8/6 300 м
[Cu Sc Cs]
+29.7 +25.9 80 +44 +49 опасность
перегрева
1002.8 1002.5
06 18.07 З 1 8000 м 6/5 300 м
[Cb calv Cs]
+31.4 +25.4 71 +46 +58 опасность
перегрева
1002.9 1002.6
09 18.07 ЮЗ 1 8000 м {дождь} 9/6 300 м
[Frnb Ac As]
+29.8 +25.9 80 +45 +47 опасность
перегрева
1001.7 1001.4
12 18.07 штиль 0 6000 м {дождь} 9/6 300 м
[Frnb Ac As]
+30.3 +25.3 75 +44 +44 опасность
перегрева
1001.4 1001.1 +32.2 7
00 19.07 штиль 0 6000 м {дождь} 9/6 200 м
[Cb calv Ac As]
+25.8 +24.6 93 +36 +36 очень
душно
1003.7 1003.4 +25.0
03 19.07 штиль 0 8000 м {дождь, морось} 6/6 300 м
[Cu Sc]
+30.2 +25.3 75 +44 +51 опасность
перегрева
1004.6 1004.3
06 19.07 ЮЗ 2 8000 м 8/5 300 м
[Cu Sc Ac trans Cs]
+32.0 +26.5 73 +49 +57 опасность
перегрева
1004.6 1004.3
09 19.07 З 1 6000 м гроза без осадков 10/8 300 м
[Cb cap Ac As]
+30.2 +25.3 75 +44 +45 опасность
перегрева
1003.6 1003.3
12 19.07 штиль 0 6000 м 9/5 300 м
[Cu Sc Ac As Cs]
+29.8 +25.3 77 +44 +44 опасность
перегрева
1003.2 1002.9 +32.6
00 20.07 штиль 0 6000 м 9/6 300 м
[Cb calv Ac As]
+26.0 +24.6 92 +37 +37 очень
душно
1005.1 1004.8 +25.7
03 20.07 штиль 0 8000 м 6/6 300 м
[Cu Sc]
+30.2 +25.3 75 +44 +51 опасность
перегрева
1006.2 1005.9
06 20.07 З 4 8000 м 5/4 300 м
[Cu Sc Cs]
+32.0 +26.5 73 +49 +57 опасность
перегрева
1005.9 1005.6
09 20.07 З 2 7000 м гроза без осадков 10/6 300 м
[Cb cap Ac As Cs]
+31.8 +25.4 69 +46 +48 опасность
перегрева
1004.4 1004.1
12 20.07 штиль 0 6000 м {гроза} 10/8 300 м
[Cb cap Ac As]
+30.0 +25.3 76 +44 +44 опасность
перегрева
1003.7 1003.4 +32.4
00 21.07 штиль 0 6000 м 9/5 300 м
[Cu Sc Ac As Cs]
+26.0 +24.6 92 +37 +37 очень
душно
1005.1 1004.8 +25.8
03 21.07 штиль 0 8000 м 5/4 300 м
[Cu Sc Cs]
+30.8 +23.9 67 +42 +53 опасность
перегрева
1006.8 1006.5
06 21.07 З 2 8000 м 5/3 300 м
[Cb calv Cs]
+31.8 +25.4 69 +46 +61 опасность
перегрева
1005.9 1005.6
09 21.07 штиль 0 6000 м слаб. морось {гроза, дождь} 10/8 200 м
[Cb cap As op]
+29.2 +25.9 82 +44 +44 опасность
перегрева
1004.8 1004.5
12 21.07 штиль 0 6000 м слаб. морось {гроза, дождь} 10/8 200 м
[Cb cap Ac As]
+27.2 +25.6 91 +40 +40 очень
душно
1004.7 1004.4 +32.5 14
00 22.07 ЮВ 1 6000 м {гроза} 10/8 200 м
[Frnb Ac As]
+26.6 +24.6 89 +38 +38 очень
душно
1005.1 1004.8 +26.0
03 22.07 ЮВ 1 8000 м 10/6 200 м
[Cu Sc Ac As]
+28.5 +25.0 81 +41 +43 опасность
перегрева
1007.2 1006.9
06 22.07 Ю 1 8000 м 10/8 300 м
[Cb calv Ac As]
+31.3 +25.4 71 +46 +47 опасность
перегрева
1006.3 1006.0
09 22.07 З 2 7000 м 10/8 200 м
[Cb calv Ac As]
+31.2 +25.4 71 +45 +46 опасность
перегрева
1004.4 1004.1
12 22.07 штиль 0 6000 м слаб. морось {гроза, дождь} 10/8 200 м
[Cb cap As op]
+28.0 +25.0 84 +40 +40 очень
душно
1004.5 1004.2 +32.4 3
00 23.07 ЮВ 1 6000 м {дождь} 9/6 200 м
[Cb calv Ac As]
+26.6 +24.6 89 +38 +38 очень
душно
1005.1 1004.8 +26.5
03 23.07 ЮЗ 1 7000 м {морось} 9/6 200 м
[Cu Sc Ac As]
+28.8 +26.8 89 +45 +48 опасность
перегрева
1006.6 1006.3
06 23.07 ЮЗ 2 8000 м 10/8 300 м
[Cb calv Ac As]
+31.5 +26.7 76 +49 +50 опасность
перегрева
1005.1 1004.8
09 23.07 ЮЗ 2 8000 м {морось} 9/6 300 м
[Cb calv Ac As]
+31.6 +22.5 59 +41 +43 опасность
перегрева
1004.8 1004.5
12 23.07 штиль 0 6000 м {дождь} 10/8 200 м
[Frnb As op]
+28.6 +25.0 81 +41 +41 опасность
перегрева
1004.4 1004.1 +31.8 4

 

Местоположение метеостанции Гва (Мьянма): широта 17.58 долгота 94.58 высота над уровнем моря 3 м.

В архиве по умолчанию представлена погода в Гва за последнюю неделю. Архивные данные за месяц целиком и за предыдущие месяцы, начиная с января 2011 года, Вы можете получить, выбрав интересующий диапазон дат из раскрывающегося списка и нажав кнопку "Ввод!".


*Определитесь, кто Вы:
робот инопланетянин человек

Внимание! Время в таблицах - всемирное. Для получения местного времени необходимо прибавить поправку, которая равна 6.5 ч.

Смотрите также архив погоды в соседних городах и на ближайших метеорологических станциях:

Погода в Хинтаде (Мьянма) (90 км)
Погода в Бассейне (Мьянма) (92 км)
Погода в Тандве (Мьянма) (102 км)
Погода в Маубине (Мьянма) (148 км)
Погода в Проме (Мьянма) (152 км)
Погода в Хмавби (Мьянма) (163 км)
Погода в Манаунге (Мьянма) (167 км)
Погода в Мингаладоне (Мьянма) (186 км)
Погода в Пхьяпоуне (Мьянма) (186 км)
Погода у Янгоне (Мьянма) (191 км)

Пояснения к столбцам:

Ветер - указаны скорость ветра в м/с - средняя за 10 мин, порывы в срок и между сроками (в фигурных скобках) и направление, откуда дует ветер: С - северный, СВ - северо-восточный, В - восточный, ЮВ - юго-восточный, Ю - южный, ЮЗ - юго-западный, З - западный, СЗ - северо-западный.
Видимость - горизонтальная дальность видимости в метрах или километрах. При видимости от 1 до 10 км при отсутствии осадков обычно наблюдается дымка, при ухудшении видимости до 1 км и менее - туман. В сухую погоду видимость может ухудшаться дымом, пылью или мглою.
Явления - указаны атмосферные явления, наблюдавшиеся в срок или в последний час перед сроком; фигурными скобками обозначены явления, наблюдавшиеся между сроками (за 1-3 часа до срока); квадратными скобками обозначены град или гололедные отложения с указанием их диаметра в мм.
Облачность - указаны через наклонную черту общая и нижняя облачность в баллах и высота нижней границы облаков в метрах; квадратными скобками обозначены формы облаков: Ci - перистые, Cs - перисто-слоистые, Cc - перисто-кучевые, Ac - высококучевые, As - высокослоистые, Sc - слоисто-кучевые, Ns - слоисто-дождевые, Cu - кучевые, Cb - кучево-дождевые. Подробнее классификацию облаков см. в Атласе облаков (PDF).
T - Температура воздуха - температура, измеренная на высоте 2 м над землей.
Td - Температура точки росы - температура, при понижении до которой содержащийся в воздухе водяной пар достигнет насыщения.
f - Относительная влажность воздуха - влажноcть воздуха, измеренная на высоте 2 м над землей.
Te - Эффективная температура - температура, которую ощущает одетый по сезону человек в тени. Характеристика душности погоды. При расчете учитывается влияние влажности воздуха и скорости ветра на теплоощущения человека.
Tes - Эффективная температура на солнце - температура, которую ощущает человек, с поправкой на солнечный нагрев. Характеристика знойности погоды. Зависит от высоты солнца над горизонтом, облачности и скорости ветра. Ночью, в пасмурную погоду, а также при ветре 12 м/с и более поправка равна нулю.
P - Атмосферное давление - приведенное к уровню моря атмосферное давление.
Po - Атмосферное давление - измеренное на уровне метеостанции атмосферное давление.
Tmin - Минимальная температура - минимум температуры воздуха на высоте 2 м над землей.
Tmax - Максимальная температура - максимум температуры воздуха на высоте 2 м над землей.
R - Количество осадков - Количество выпавших осадков за период времени, мм. При наведении курсора мыши на число - период времени, за который выпало указанное количество осадков.
R24 - Количество осадков - Количество выпавших осадков за 24 часа, мм.
S - Снежный покров - Высота снежного покрова, см. При наведении курсора мыши на число - состояние снежного покрова и степень покрытия местности в баллах.